{"data":{"norad_id":59588,"intl_designator":"2024-077B","name":"ACS3","alt_names":[],"object_type":"PAYLOAD","status":"ACTIVE","operator":null,"country":"US","launch_date":"2024-04-23","launch_site_code":"RLLB","launch_vehicle":null,"mission":null,"orbit_class":"UNKNOWN","rcs_meters":null,"size_class":null,"mass_kg":null,"dimensions":null,"purposes":[],"wikipedia_slug":null,"has_3d_model":false,"image_url":null,"decayed_at":null,"tle_current":{"epoch":"2026-05-23T05:14:10.266432Z","epoch_age_seconds":226314,"freshness":"STALE","line1":"1 59588U 24077B   26143.21817438  .00003034  00000+0  23650-2 0  9992","line2":"2 59588  97.1747  67.5928 0022165  22.8878 337.3271 13.92695105104563","mean_motion":13.92695105,"eccentricity":0.0022165,"inclination_deg":97.1747,"raan_deg":67.5928,"arg_perigee_deg":22.8878,"mean_anomaly_deg":337.3271,"bstar":0.002365,"rev_number":10456,"period_min":103.39664401994,"perigee_km":903.02666388216,"apogee_km":935.37576418497,"semimajor_km":7297.3382140336,"source":"CELESTRAK","updated_at":"2026-05-25T13:38:01.519727Z"}}}